When you browse on this site, cookies collect data to enhance your experience and personalize the content and advertising you see.
Visit our Privacy Policy to learn more. By continuing to use the site, you agree to this use of cookies and data.
  • In Sweden
  • List of Countries
  • For 7 days
  • Water Temperature
  • Weather Map
  • Weather Widgets
  • user-avatar
    Login

    Hourly Weather Ålesund

    Today, 25 May, Monday

    Time Temperature Precipitation Wind Pressure Humidity
    00:00 +9°C° 0 mm 2 mps 763 mmHg 96%
    01:00 +9°C° 0 mm 2 mps 764 mmHg 97%
    02:00 +8°C° 0 mm 2 mps 765 mmHg 97%
    03:00 +8°C° 0 mm 2 mps 765 mmHg 97%
    04:00 +9°C° 0 mm 2 mps 766 mmHg 95%
    05:00 +9°C° 0 mm 2 mps 766 mmHg 92%
    06:00 +10°C° 0 mm 2 mps 766 mmHg 89%
    07:00 +11°C° 0 mm 3 mps 767 mmHg 83%
    08:00 +12°C° 0 mm 3 mps 767 mmHg 78%
    09:00 +13°C° 0 mm 3 mps 767 mmHg 72%
    10:00 +13°C° 0 mm 3 mps 767 mmHg 68%
    11:00 +14°C° 0 mm 4 mps 767 mmHg 64%
    12:00 +15°C° 0 mm 4 mps 767 mmHg 61%
    13:00 +15°C° 0 mm 4 mps 767 mmHg 60%
    14:00 +15°C° 0 mm 4 mps 767 mmHg 59%
    15:00 +17°C° 0 mm 4 mps 767 mmHg 58%
    16:00 +15°C° 0 mm 4 mps 767 mmHg 62%
    17:00 +14°C° 0 mm 4 mps 767 mmHg 65%
    18:00 +14°C° 0 mm 4 mps 767 mmHg 68%
    19:00 +13°C° 0 mm 4 mps 767 mmHg 73%
    20:00 +12°C° 0 mm 4 mps 767 mmHg 78%
    21:00 +10°C° 0 mm 4 mps 767 mmHg 82%
    22:00 +10°C° 0 mm 4 mps 767 mmHg 83%
    23:00 +10°C° 0 mm 3 mps 767 mmHg 83%

    Tomorrow, 26 May, Tuesday

    Time Temperature Precipitation Wind Pressure Humidity
    00:00 +10°C° 0 mm 3 mps 767 mmHg 84%
    01:00 +10°C° 0 mm 3 mps 767 mmHg 83%
    02:00 +10°C° 0 mm 3 mps 767 mmHg 83%
    03:00 +10°C° 0 mm 3 mps 767 mmHg 83%
    04:00 +10°C° 0 mm 3 mps 767 mmHg 82%
    05:00 +11°C° 0 mm 3 mps 767 mmHg 81%
    06:00 +11°C° 0 mm 3 mps 767 mmHg 80%
    07:00 +11°C° 0.1 mm 3 mps 767 mmHg 80%
    08:00 +11°C° 0.1 mm 4 mps 767 mmHg 81%
    09:00 +11°C° 0.1 mm 4 mps 767 mmHg 81%
    10:00 +12°C° 0 mm 4 mps 767 mmHg 77%
    11:00 +13°C° 0 mm 5 mps 767 mmHg 73%
    12:00 +14°C° 0 mm 6 mps 767 mmHg 68%
    13:00 +14°C° 0.1 mm 6 mps 767 mmHg 71%
    14:00 +13°C° 0.1 mm 6 mps 767 mmHg 74%
    15:00 +12°C° 0.1 mm 7 mps 767 mmHg 76%
    16:00 +12°C° 0.1 mm 7 mps 767 mmHg 74%
    17:00 +11°C° 0.1 mm 6 mps 767 mmHg 72%
    18:00 +11°C° 0.1 mm 6 mps 767 mmHg 70%
    19:00 +10°C° 0.1 mm 6 mps 767 mmHg 74%
    20:00 +9°C° 0.1 mm 5 mps 767 mmHg 79%
    21:00 +9°C° 0.1 mm 5 mps 767 mmHg 84%
    22:00 +8°C° 0.2 mm 5 mps 767 mmHg 86%
    23:00 +8°C° 0.2 mm 5 mps 767 mmHg 87%

    Day after tomorrow, 27 May, Wednesday

    Time Temperature Precipitation Wind Pressure Humidity
    00:00 +7°C° 0.2 mm 5 mps 767 mmHg 89%
    01:00 +7°C° 0.2 mm 5 mps 767 mmHg 90%
    02:00 +6°C° 0.2 mm 5 mps 766 mmHg 90%
    03:00 +6°C° 0.2 mm 5 mps 766 mmHg 91%
    04:00 +6°C° 0.2 mm 5 mps 766 mmHg 88%
    05:00 +7°C° 0.2 mm 6 mps 766 mmHg 85%
    06:00 +7°C° 0.2 mm 6 mps 766 mmHg 82%
    07:00 +7°C° 0.5 mm 6 mps 766 mmHg 85%
    08:00 +7°C° 0.5 mm 6 mps 766 mmHg 88%
    09:00 +7°C° 0.5 mm 6 mps 766 mmHg 91%
    10:00 +7°C° 0.7 mm 6 mps 766 mmHg 90%
    11:00 +7°C° 0.7 mm 6 mps 766 mmHg 89%
    12:00 +7°C° 0.7 mm 6 mps 767 mmHg 89%
    13:00 +7°C° 0.5 mm 6 mps 767 mmHg 88%
    14:00 +7°C° 0.5 mm 5 mps 767 mmHg 87%
    15:00 +7°C° 0.5 mm 4 mps 768 mmHg 86%
    16:00 +7°C° 0.2 mm 4 mps 768 mmHg 83%
    17:00 +8°C° 0.2 mm 3 mps 769 mmHg 81%
    18:00 +8°C° 0.2 mm 3 mps 769 mmHg 78%
    19:00 +7°C° 0 mm 2 mps 769 mmHg 82%
    20:00 +6°C° 0 mm 2 mps 769 mmHg 86%
    21:00 +6°C° 0 mm 1 mps 770 mmHg 90%
    22:00 +5°C° 0 mm 1 mps 770 mmHg 89%
    23:00 +4°C° 0 mm 2 mps 770 mmHg 89%

    28 May, Thursday

    Time Temperature Precipitation Wind Pressure Humidity
    00:00 +4°C° 0 mm 2 mps 770 mmHg 88%
    01:00 +4°C° 0 mm 2 mps 770 mmHg 87%
    02:00 +4°C° 0 mm 2 mps 770 mmHg 85%
    03:00 +3°C° 0 mm 3 mps 770 mmHg 84%
    04:00 +4°C° 0 mm 3 mps 769 mmHg 78%
    05:00 +7°C° 0 mm 2 mps 769 mmHg 72%
    06:00 +8°C° 0 mm 2 mps 769 mmHg 66%
    07:00 +9°C° 0 mm 2 mps 769 mmHg 62%
    08:00 +10°C° 0 mm 2 mps 769 mmHg 59%
    09:00 +12°C° 0 mm 2 mps 769 mmHg 55%
    10:00 +12°C° 0 mm 2 mps 769 mmHg 56%
    11:00 +11°C° 0 mm 3 mps 769 mmHg 56%
    12:00 +12°C° 0 mm 3 mps 769 mmHg 57%
    13:00 +12°C° 0 mm 3 mps 769 mmHg 59%
    14:00 +12°C° 0 mm 2 mps 769 mmHg 61%
    15:00 +12°C° 0 mm 2 mps 769 mmHg 63%
    16:00 +12°C° 0 mm 2 mps 769 mmHg 65%
    17:00 +12°C° 0 mm 1 mps 769 mmHg 67%
    18:00 +11°C° 0 mm 1 mps 769 mmHg 69%
    19:00 +10°C° 0 mm 1 mps 769 mmHg 75%
    20:00 +9°C° 0 mm 1 mps 769 mmHg 81%
    21:00 +8°C° 0 mm 1 mps 769 mmHg 87%
    22:00 +7°C° 0 mm 1 mps 769 mmHg 88%
    23:00 +7°C° 0 mm 1 mps 769 mmHg 88%

    29 May, Friday

    Time Temperature Precipitation Wind Pressure Humidity
    00:00 +7°C° 0 mm 1 mps 769 mmHg 89%
    01:00 +7°C° 0 mm 1 mps 769 mmHg 88%
    02:00 +7°C° 0 mm 1 mps 769 mmHg 87%
    03:00 +6°C° 0 mm 2 mps 769 mmHg 87%
    04:00 +8°C° 0 mm 2 mps 769 mmHg 78%
    05:00 +10°C° 0 mm 2 mps 769 mmHg 70%
    06:00 +12°C° 0 mm 2 mps 768 mmHg 61%
    07:00 +14°C° 0 mm 2 mps 768 mmHg 56%
    08:00 +15°C° 0 mm 2 mps 768 mmHg 50%
    09:00 +17°C° 0 mm 2 mps 768 mmHg 44%
    10:00 +17°C° 0 mm 2 mps 768 mmHg 43%
    11:00 +18°C° 0 mm 2 mps 768 mmHg 41%
    12:00 +19°C° 0 mm 3 mps 768 mmHg 39%
    13:00 +19°C° 0 mm 2 mps 767 mmHg 41%
    14:00 +18°C° 0 mm 2 mps 767 mmHg 43%
    15:00 +18°C° 0 mm 2 mps 767 mmHg 45%
    16:00 +17°C° 0 mm 2 mps 767 mmHg 47%
    17:00 +17°C° 0 mm 2 mps 767 mmHg 48%
    18:00 +16°C° 0 mm 2 mps 767 mmHg 50%
    19:00 +15°C° 0 mm 1 mps 767 mmHg 55%
    20:00 +13°C° 0 mm 1 mps 767 mmHg 60%
    21:00 +12°C° 0 mm 1 mps 768 mmHg 66%
    22:00 +10°C° 0 mm 0 mps 768 mmHg 66%
    23:00 +10°C° 0 mm 0 mps 768 mmHg 67%

    30 May, Saturday

    Time Temperature Precipitation Wind Pressure Humidity
    00:00 +9°C° 0 mm 0 mps 768 mmHg 67%
    01:00 +9°C° 0 mm 0 mps 767 mmHg 68%
    02:00 +9°C° 0 mm 0 mps 767 mmHg 68%
    03:00 +9°C° 0 mm 0 mps 767 mmHg 68%
    04:00 +11°C° 0 mm 0 mps 767 mmHg 63%
    05:00 +13°C° 0 mm 0 mps 767 mmHg 57%
    06:00 +15°C° 0 mm 0 mps 767 mmHg 52%
    07:00 +16°C° 0 mm 0 mps 767 mmHg 49%
    08:00 +19°C° 0 mm 1 mps 767 mmHg 47%
    09:00 +20°C° 0 mm 1 mps 767 mmHg 44%
    10:00 +20°C° 0 mm 1 mps 767 mmHg 44%
    11:00 +19°C° 0 mm 2 mps 767 mmHg 43%
    12:00 +20°C° 0 mm 2 mps 766 mmHg 43%
    13:00 +19°C° 0 mm 2 mps 766 mmHg 44%
    14:00 +19°C° 0 mm 2 mps 766 mmHg 45%
    15:00 +19°C° 0 mm 2 mps 766 mmHg 46%
    16:00 +18°C° 0 mm 2 mps 766 mmHg 48%
    17:00 +18°C° 0 mm 2 mps 766 mmHg 50%
    18:00 +17°C° 0 mm 2 mps 766 mmHg 52%
    19:00 +15°C° 0 mm 2 mps 766 mmHg 57%
    20:00 +14°C° 0 mm 2 mps 766 mmHg 63%
    21:00 +13°C° 0 mm 2 mps 766 mmHg 68%
    22:00 +12°C° 0 mm 1 mps 766 mmHg 69%
    23:00 +12°C° 0 mm 1 mps 765 mmHg 70%
    Show more